Time,TemperatureF,DewpointF,PressureIn,WindDirection,WindDirectionDegrees,WindSpeedMPH,WindSpeedGustMPH,Humidity,HourlyPrecipIn,Conditions,Clouds,dailyrainin,SoftwareType,DateUTC
2013-03-23 00:00:00,25.3,14.8,30.07,WNW,298,1.0,0.0,64,0.00,CLR,,0.00,WeatherDisplay:10.37,2013-03-23 05:00:00,
2013-03-23 00:05:00,25.3,14.8,30.07,WNW,298,3.5,3.5,64,0.00,CLR,,0.00,WeatherDisplay:10.37,2013-03-23 05:05:00,
2013-03-23 00:10:00,25.1,14.6,30.07,WNW,298,0.0,0.0,64,0.00,CLR,,0.00,WeatherDisplay:10.37,2013-03-23 05:10:00,
2013-03-23 00:15:00,25.1,14.6,30.07,WNW,298,2.3,2.3,64,0.00,CLR,,0.00,WeatherDisplay:10.37,2013-03-23 05:15:00,
2013-03-23 00:20:00,25.1,14.6,30.07,WNW,298,1.1,1.1,64,0.00,CLR,,0.00,WeatherDisplay:10.37,2013-03-23 05:20:00,
2013-03-23 00:25:00,25.1,14.6,30.07,WNW,298,1.1,1.1,64,0.00,CLR,,0.00,WeatherDisplay:10.37,2013-03-23 05:25:00,
2013-03-23 00:30:00,25.1,14.6,30.07,WNW,298,2.3,2.3,64,0.00,CLR,,0.00,WeatherDisplay:10.37,2013-03-23 05:30:00,
2013-03-23 00:35:00,25.1,14.6,30.07,WNW,298,3.5,3.5,64,0.00,CLR,,0.00,WeatherDisplay:10.37,2013-03-23 05:35:00,
2013-03-23 00:40:00,25.1,14.6,30.07,WNW,298,0.0,0.0,64,0.00,CLR,,0.00,WeatherDisplay:10.37,2013-03-23 05:40:00,
2013-03-23 00:45:00,25.1,14.6,30.07,WNW,298,2.3,2.3,64,0.00,CLR,,0.00,WeatherDisplay:10.37,2013-03-23 05:45:00,
2013-03-23 00:50:00,25.1,14.6,30.07,WNW,298,2.3,2.3,64,0.00,CLR,,0.00,WeatherDisplay:10.37,2013-03-23 05:50:00,
2013-03-23 00:55:00,25.1,14.6,30.07,WNW,298,2.3,2.3,64,0.00,CLR,,0.00,WeatherDisplay:10.37,2013-03-23 05:55:00,
2013-03-23 01:00:00,25.1,14.6,30.06,WNW,298,1.1,1.1,64,0.00,CLR,,0.00,WeatherDisplay:10.37,2013-03-23 06:00:00,
2013-03-23 01:05:00,25.1,14.6,30.06,WNW,298,0.0,0.0,64,0.00,CLR,,0.00,WeatherDisplay:10.37,2013-03-23 06:05:00,
2013-03-23 01:10:00,25.1,14.6,30.06,WNW,298,1.1,1.1,64,0.00,CLR,,0.00,WeatherDisplay:10.37,2013-03-23 06:10:00,
2013-03-23 01:15:00,25.1,14.6,30.05,WNW,298,2.3,2.3,64,0.00,CLR,,0.00,WeatherDisplay:10.37,2013-03-23 06:15:00,
2013-03-23 01:20:00,25.1,14.6,30.05,WNW,298,1.1,0.0,64,0.00,CLR,,0.00,WeatherDisplay:10.37,2013-03-23 06:20:00,
2013-03-23 01:25:00,25.1,14.6,30.05,WNW,298,3.0,3.0,64,0.00,CLR,,0.00,WeatherDisplay:10.37,2013-03-23 06:25:00,
2013-03-23 01:30:00,25.1,14.6,30.06,WNW,298,2.3,2.3,64,0.00,CLR,,0.00,WeatherDisplay:10.37,2013-03-23 06:30:00,
2013-03-23 01:35:00,25.1,14.6,30.06,WNW,298,1.1,0.0,64,0.00,CLR,,0.00,WeatherDisplay:10.37,2013-03-23 06:35:00,
2013-03-23 01:40:00,25.0,14.5,30.06,WNW,298,1.1,1.1,64,0.00,CLR,,0.00,WeatherDisplay:10.37,2013-03-23 06:40:00,
2013-03-23 01:45:00,25.0,14.5,30.06,WNW,298,1.1,1.1,64,0.00,CLR,,0.00,WeatherDisplay:10.37,2013-03-23 06:45:00,
2013-03-23 01:50:00,25.1,14.6,30.06,WNW,298,2.3,2.3,64,0.00,CLR,,0.00,WeatherDisplay:10.37,2013-03-23 06:50:00,
2013-03-23 01:55:00,25.1,14.6,30.06,WNW,298,2.0,2.0,64,0.00,CLR,,0.00,WeatherDisplay:10.37,2013-03-23 06:55:00,
2013-03-23 02:00:00,25.1,14.6,30.04,WNW,298,2.3,2.3,64,0.00,CLR,,0.00,WeatherDisplay:10.37,2013-03-23 07:00:00,
2013-03-23 02:05:00,25.0,14.5,30.04,WNW,298,0.0,0.0,64,0.00,CLR,,0.00,WeatherDisplay:10.37,2013-03-23 07:05:00,
2013-03-23 02:10:00,25.0,14.5,30.04,WNW,298,1.1,0.0,64,0.00,CLR,,0.00,WeatherDisplay:10.37,2013-03-23 07:10:00,
2013-03-23 02:15:00,24.8,14.3,30.05,WNW,298,0.0,0.0,64,0.00,CLR,,0.00,WeatherDisplay:10.37,2013-03-23 07:15:00,
2013-03-23 02:20:00,24.5,14.1,30.05,WNW,298,0.0,0.0,64,0.00,CLR,,0.00,WeatherDisplay:10.37,2013-03-23 07:20:00,
2013-03-23 02:25:00,24.2,14.1,30.05,WNW,298,0.0,0.0,65,0.00,CLR,,0.00,WeatherDisplay:10.37,2013-03-23 07:25:00,
2013-03-23 02:30:00,23.9,14.2,30.04,WNW,298,0.0,0.0,66,0.00,CLR,,0.00,WeatherDisplay:10.37,2013-03-23 07:30:00,
2013-03-23 02:35:00,23.6,14.2,30.04,WNW,298,0.0,0.0,67,0.00,CLR,,0.00,WeatherDisplay:10.37,2013-03-23 07:35:00,
2013-03-23 02:40:00,23.5,14.1,30.04,WNW,298,0.0,0.0,67,0.00,CLR,,0.00,WeatherDisplay:10.37,2013-03-23 07:40:00,
2013-03-23 02:45:00,23.3,14.0,30.04,WNW,298,0.0,0.0,67,0.00,CLR,,0.00,WeatherDisplay:10.37,2013-03-23 07:45:00,
2013-03-23 02:50:00,23.0,13.7,30.04,WNW,298,0.0,0.0,67,0.00,CLR,,0.00,WeatherDisplay:10.37,2013-03-23 07:50:00,
2013-03-23 02:55:00,22.9,13.9,30.04,WNW,298,0.0,0.0,68,0.00,CLR,,0.00,WeatherDisplay:10.37,2013-03-23 07:55:00,
2013-03-23 03:00:00,22.5,13.5,30.04,WNW,298,1.1,1.1,68,0.00,CLR,,0.00,WeatherDisplay:10.37,2013-03-23 08:00:00,
2013-03-23 03:05:00,21.9,13.3,30.04,WNW,298,0.0,0.0,69,0.00,CLR,,0.00,WeatherDisplay:10.37,2013-03-23 08:05:00,
2013-03-23 03:10:00,21.4,13.1,30.04,WNW,298,0.0,0.0,70,0.00,CLR,,0.00,WeatherDisplay:10.37,2013-03-23 08:10:00,
2013-03-23 03:15:00,21.1,13.2,30.04,WNW,298,1.1,1.1,71,0.00,CLR,,0.00,WeatherDisplay:10.37,2013-03-23 08:15:00,
2013-03-23 03:20:00,20.8,12.9,30.04,WNW,298,0.0,0.0,71,0.00,CLR,,0.00,WeatherDisplay:10.37,2013-03-23 08:20:00,
2013-03-23 03:25:00,20.5,12.9,30.04,WNW,298,0.0,0.0,72,0.00,CLR,,0.00,WeatherDisplay:10.37,2013-03-23 08:25:00,
2013-03-23 03:30:00,20.5,12.9,30.05,WNW,298,0.0,0.0,72,0.00,CLR,,0.00,WeatherDisplay:10.37,2013-03-23 08:30:00,
2013-03-23 03:35:00,20.5,13.2,30.05,WNW,298,0.0,0.0,73,0.00,CLR,,0.00,WeatherDisplay:10.37,2013-03-23 08:35:00,
2013-03-23 03:40:00,20.6,13.3,30.05,WNW,298,1.1,0.0,73,0.00,CLR,,0.00,WeatherDisplay:10.37,2013-03-23 08:40:00,
2013-03-23 03:45:00,20.6,13.3,30.07,WNW,298,2.3,2.3,73,0.00,CLR,,0.00,WeatherDisplay:10.37,2013-03-23 08:45:00,
2013-03-23 03:50:00,21.0,14.0,30.07,WNW,298,3.5,3.5,74,0.00,CLR,,0.00,WeatherDisplay:10.37,2013-03-23 08:50:00,
2013-03-23 03:55:00,21.1,13.8,30.07,WNW,298,0.0,0.0,73,0.00,CLR,,0.00,WeatherDisplay:10.37,2013-03-23 08:55:00,
2013-03-23 04:00:00,21.3,13.7,30.06,WNW,298,3.5,3.5,72,0.00,CLR,,0.00,WeatherDisplay:10.37,2013-03-23 09:00:00,
2013-03-23 04:05:00,21.4,13.5,30.06,WNW,297,3.5,3.5,71,0.00,CLR,,0.00,WeatherDisplay:10.37,2013-03-23 09:05:00,
2013-03-23 04:10:00,21.4,13.5,30.06,WNW,297,2.3,2.3,71,0.00,CLR,,0.00,WeatherDisplay:10.37,2013-03-23 09:10:00,
2013-03-23 04:15:00,21.1,13.2,30.07,WNW,297,3.5,3.5,71,0.00,CLR,,0.00,WeatherDisplay:10.37,2013-03-23 09:15:00,
2013-03-23 04:20:00,21.1,13.2,30.07,WNW,297,2.3,2.3,71,0.00,CLR,,0.00,WeatherDisplay:10.37,2013-03-23 09:20:00,
2013-03-23 04:25:00,21.0,13.1,30.07,WNW,297,3.5,3.5,71,0.00,CLR,,0.00,WeatherDisplay:10.37,2013-03-23 09:25:00,
2013-03-23 04:30:00,21.0,13.4,30.08,WNW,297,3.5,3.5,72,0.00,CLR,,0.00,WeatherDisplay:10.37,2013-03-23 09:30:00,
2013-03-23 04:35:00,20.8,13.5,30.08,WNW,297,3.5,3.5,73,0.00,CLR,,0.00,WeatherDisplay:10.37,2013-03-23 09:35:00,
2013-03-23 04:40:00,21.0,13.4,30.08,WNW,297,4.6,4.6,72,0.00,CLR,,0.00,WeatherDisplay:10.37,2013-03-23 09:40:00,
2013-03-23 04:45:00,20.8,13.2,30.08,WNW,297,3.5,3.5,72,0.00,CLR,,0.00,WeatherDisplay:10.37,2013-03-23 09:45:00,
2013-03-23 04:50:00,20.8,12.9,30.08,WNW,297,3.5,3.5,71,0.00,CLR,,0.00,WeatherDisplay:10.37,2013-03-23 09:50:00,
2013-03-23 04:55:00,20.5,12.9,30.08,WNW,297,2.3,2.3,72,0.00,CLR,,0.00,WeatherDisplay:10.37,2013-03-23 09:55:00,
2013-03-23 05:00:00,20.5,12.9,30.08,WNW,297,1.1,1.1,72,0.00,CLR,,0.00,WeatherDisplay:10.37,2013-03-23 10:00:00,
2013-03-23 05:05:00,20.3,12.7,30.08,WNW,297,2.3,2.3,72,0.00,CLR,,0.00,WeatherDisplay:10.37,2013-03-23 10:05:00,
2013-03-23 05:10:00,20.2,12.6,30.08,WNW,297,3.5,3.5,72,0.00,CLR,,0.00,WeatherDisplay:10.37,2013-03-23 10:10:00,
2013-03-23 05:15:00,20.3,12.7,30.09,WNW,297,2.3,2.3,72,0.00,CLR,,0.00,WeatherDisplay:10.37,2013-03-23 10:15:00,
2013-03-23 05:20:00,20.3,13.0,30.09,WNW,297,2.3,2.3,73,0.00,CLR,,0.00,WeatherDisplay:10.37,2013-03-23 10:20:00,
2013-03-23 05:25:00,20.2,12.9,30.09,WNW,297,3.5,3.5,73,0.00,CLR,,0.00,WeatherDisplay:10.37,2013-03-23 10:25:00,
2013-03-23 05:30:00,19.9,12.6,30.09,WNW,297,4.0,4.0,73,0.00,CLR,,0.00,WeatherDisplay:10.37,2013-03-23 10:30:00,
2013-03-23 05:35:00,19.7,12.4,30.09,WNW,297,3.5,3.5,73,0.00,CLR,,0.00,WeatherDisplay:10.37,2013-03-23 10:35:00,
2013-03-23 05:40:00,19.4,12.2,30.09,WNW,297,3.5,3.5,73,0.00,CLR,,0.00,WeatherDisplay:10.37,2013-03-23 10:40:00,
2013-03-23 05:45:00,19.4,12.5,30.10,West,281,4.6,4.6,74,0.00,CLR,,0.00,WeatherDisplay:10.37,2013-03-23 10:45:00,
2013-03-23 05:50:00,19.2,12.3,30.10,WNW,299,3.5,3.5,74,0.00,CLR,,0.00,WeatherDisplay:10.37,2013-03-23 10:50:00,
2013-03-23 05:55:00,19.2,12.3,30.10,WNW,289,5.8,5.8,74,0.00,CLR,,0.00,WeatherDisplay:10.37,2013-03-23 10:55:00,
2013-03-23 06:00:00,19.2,12.6,30.10,WNW,287,3.5,3.5,75,0.00,CLR,,0.00,WeatherDisplay:10.37,2013-03-23 11:00:00,
2013-03-23 06:05:00,19.1,12.5,30.10,WNW,287,2.3,2.3,75,0.00,CLR,,0.00,WeatherDisplay:10.37,2013-03-23 11:05:00,
2013-03-23 06:10:00,18.9,12.3,30.10,WNW,287,2.3,2.3,75,0.00,CLR,,0.00,WeatherDisplay:10.37,2013-03-23 11:10:00,
2013-03-23 06:15:00,18.8,12.2,30.10,WNW,287,2.3,2.3,75,0.00,CLR,,0.00,WeatherDisplay:10.37,2013-03-23 11:15:00,
2013-03-23 06:20:00,18.6,12.0,30.10,WNW,287,1.1,1.1,75,0.00,CLR,,0.00,WeatherDisplay:10.37,2013-03-23 11:20:00,
2013-03-23 06:25:00,18.3,11.7,30.10,WNW,287,1.1,0.0,75,0.00,CLR,,0.00,WeatherDisplay:10.37,2013-03-23 11:25:00,
2013-03-23 06:30:00,18.0,11.7,30.09,WNW,287,1.1,1.1,76,0.00,CLR,,0.00,WeatherDisplay:10.37,2013-03-23 11:30:00,
2013-03-23 06:35:00,17.7,11.4,30.09,WNW,287,0.0,0.1,76,0.00,CLR,,0.00,WeatherDisplay:10.37,2013-03-23 11:35:00,
2013-03-23 06:40:00,17.3,11.0,30.09,WNW,287,0.0,0.0,76,0.00,CLR,,0.00,WeatherDisplay:10.37,2013-03-23 11:40:00,
2013-03-23 06:45:00,17.2,11.2,30.09,WNW,287,1.1,1.1,77,0.00,CLR,,0.00,WeatherDisplay:10.37,2013-03-23 11:45:00,
2013-03-23 06:50:00,17.0,11.0,30.09,WNW,287,0.0,0.0,77,0.00,CLR,,0.00,WeatherDisplay:10.37,2013-03-23 11:50:00,
2013-03-23 06:55:00,16.9,11.2,30.09,WNW,287,1.0,0.0,78,0.00,CLR,,0.00,WeatherDisplay:10.37,2013-03-23 11:55:00,
2013-03-23 07:00:00,16.9,11.2,30.08,WNW,287,0.0,0.0,78,0.00,CLR,,0.00,WeatherDisplay:10.37,2013-03-23 12:00:00,
2013-03-23 07:05:00,16.9,11.2,30.08,WNW,287,0.0,0.0,78,0.00,CLR,,0.00,WeatherDisplay:10.37,2013-03-23 12:05:00,
2013-03-23 07:10:00,16.5,10.8,30.08,WNW,287,0.0,0.0,78,0.00,CLR,,0.00,WeatherDisplay:10.37,2013-03-23 12:10:00,
2013-03-23 07:15:00,16.4,11.0,30.09,WNW,287,0.0,0.0,79,0.00,CLR,,0.00,WeatherDisplay:10.37,2013-03-23 12:15:00,
2013-03-23 07:20:00,16.4,11.0,30.09,WNW,287,0.0,0.0,79,0.00,CLR,,0.00,WeatherDisplay:10.37,2013-03-23 12:20:00,
2013-03-23 07:25:00,16.2,10.8,30.09,WNW,287,0.0,0.0,79,0.00,CLR,,0.00,WeatherDisplay:10.37,2013-03-23 12:25:00,
2013-03-23 07:30:00,16.1,11.0,30.10,WNW,287,0.0,0.0,80,0.00,CLR,,0.00,WeatherDisplay:10.37,2013-03-23 12:30:00,
2013-03-23 07:35:00,16.1,11.0,30.10,WNW,287,0.0,0.0,80,0.00,CLR,,0.00,WeatherDisplay:10.37,2013-03-23 12:35:00,
2013-03-23 07:40:00,16.4,11.3,30.10,WNW,287,0.0,0.0,80,0.00,CLR,,0.00,WeatherDisplay:10.37,2013-03-23 12:40:00,
2013-03-23 07:45:00,16.4,11.3,30.10,WNW,287,0.0,0.0,80,0.00,CLR,,0.00,WeatherDisplay:10.37,2013-03-23 12:45:00,
2013-03-23 07:50:00,16.5,11.4,30.10,WNW,287,0.0,0.0,80,0.00,CLR,,0.00,WeatherDisplay:10.37,2013-03-23 12:50:00,
2013-03-23 07:55:00,16.9,12.1,30.10,WNW,287,0.0,0.0,81,0.00,CLR,,0.00,WeatherDisplay:10.37,2013-03-23 12:55:00,
2013-03-23 08:00:00,17.3,12.5,30.10,WNW,287,0.0,0.0,81,0.00,CLR,,0.00,WeatherDisplay:10.37,2013-03-23 13:00:00,
2013-03-23 08:05:00,17.8,13.0,30.10,WNW,287,0.0,0.0,81,0.00,CLR,,0.00,WeatherDisplay:10.37,2013-03-23 13:05:00,
2013-03-23 08:10:00,18.4,13.3,30.10,WNW,287,0.0,0.0,80,0.00,CLR,,0.00,WeatherDisplay:10.37,2013-03-23 13:10:00,
2013-03-23 08:15:00,19.1,13.9,30.10,WNW,287,0.0,0.0,80,0.00,CLR,,0.00,WeatherDisplay:10.37,2013-03-23 13:15:00,
2013-03-23 08:20:00,19.7,14.2,30.10,WNW,287,0.0,0.0,79,0.00,CLR,,0.00,WeatherDisplay:10.37,2013-03-23 13:20:00,
2013-03-23 08:25:00,20.5,14.7,30.10,WNW,287,0.0,0.0,78,0.00,CLR,,0.00,WeatherDisplay:10.37,2013-03-23 13:25:00,
2013-03-23 08:30:00,21.1,14.7,30.11,WNW,287,0.0,0.1,76,0.00,CLR,,0.00,WeatherDisplay:10.37,2013-03-23 13:30:00,
2013-03-23 08:35:00,21.8,14.8,30.11,WNW,287,2.3,2.3,74,0.00,CLR,,0.00,WeatherDisplay:10.37,2013-03-23 13:35:00,
2013-03-23 08:40:00,22.2,14.9,30.11,WNW,287,2.3,2.3,73,0.00,CLR,,0.00,WeatherDisplay:10.37,2013-03-23 13:40:00,
2013-03-23 08:45:00,22.5,14.5,30.13,WNW,287,3.5,3.5,71,0.00,CLR,,0.00,WeatherDisplay:10.37,2013-03-23 13:45:00,
2013-03-23 08:50:00,23.2,14.9,30.13,WNW,287,3.5,3.5,70,0.00,CLR,,0.00,WeatherDisplay:10.37,2013-03-23 13:50:00,
2013-03-23 08:55:00,23.6,14.2,30.13,WNW,287,4.6,4.6,67,0.00,CLR,,0.00,WeatherDisplay:10.37,2013-03-23 13:55:00,
2013-03-23 09:00:00,23.8,14.1,30.10,NNW,347,4.0,4.0,66,0.00,CLR,,0.00,WeatherDisplay:10.37,2013-03-23 14:00:00,
2013-03-23 09:05:00,23.8,14.4,30.10,NNW,348,3.5,3.5,67,0.00,CLR,,0.00,WeatherDisplay:10.37,2013-03-23 14:05:00,
2013-03-23 09:10:00,24.2,14.5,30.10,NNW,348,3.5,3.5,66,0.00,CLR,,0.00,WeatherDisplay:10.37,2013-03-23 14:10:00,
2013-03-23 09:15:00,24.7,14.6,30.10,NNW,348,2.0,2.0,65,0.00,CLR,,0.00,WeatherDisplay:10.37,2013-03-23 14:15:00,
2013-03-23 09:20:00,24.7,14.2,30.10,NNW,348,3.5,3.5,64,0.00,CLR,,0.00,WeatherDisplay:10.37,2013-03-23 14:20:00,
2013-03-23 09:25:00,24.8,14.3,30.10,NNW,348,3.5,3.5,64,0.00,CLR,,0.00,WeatherDisplay:10.37,2013-03-23 14:25:00,
2013-03-23 09:30:00,25.1,14.6,30.10,NNW,348,2.3,2.3,64,0.00,CLR,,0.00,WeatherDisplay:10.37,2013-03-23 14:30:00,
2013-03-23 09:35:00,25.4,14.5,30.10,NNW,348,3.5,3.5,63,0.00,CLR,,0.00,WeatherDisplay:10.37,2013-03-23 14:35:00,
2013-03-23 09:40:00,25.8,14.6,30.10,NNW,348,2.3,2.3,62,0.00,CLR,,0.00,WeatherDisplay:10.37,2013-03-23 14:40:00,
2013-03-23 09:45:00,26.1,14.5,30.11,NNW,348,3.0,3.0,61,0.00,CLR,,0.00,WeatherDisplay:10.37,2013-03-23 14:45:00,
2013-03-23 09:50:00,26.6,14.6,30.11,NNW,348,3.5,3.5,60,0.00,CLR,,0.00,WeatherDisplay:10.37,2013-03-23 14:50:00,
2013-03-23 09:55:00,27.2,15.1,30.11,SW,229,2.3,2.3,60,0.00,CLR,,0.00,WeatherDisplay:10.37,2013-03-23 14:55:00,
2013-03-23 10:00:00,27.6,15.1,30.11,WNW,296,4.6,4.6,59,0.00,CLR,,0.00,WeatherDisplay:10.37,2013-03-23 15:00:00,
2013-03-23 10:05:00,28.1,14.8,30.11,WNW,300,6.9,6.9,57,0.00,CLR,,0.00,WeatherDisplay:10.37,2013-03-23 15:05:00,
2013-03-23 10:10:00,28.7,15.4,30.11,NW,307,2.3,2.3,57,0.00,CLR,,0.00,WeatherDisplay:10.37,2013-03-23 15:10:00,
2013-03-23 10:15:00,28.7,15.0,30.11,NW,323,5.8,5.8,56,0.00,CLR,,0.00,WeatherDisplay:10.37,2013-03-23 15:15:00,
2013-03-23 10:20:00,28.8,15.1,30.11,NW,323,3.5,3.5,56,0.00,CLR,,0.00,WeatherDisplay:10.37,2013-03-23 15:20:00,
2013-03-23 10:25:00,29.0,15.2,30.11,NW,323,4.6,4.6,56,0.00,CLR,,0.00,WeatherDisplay:10.37,2013-03-23 15:25:00,
2013-03-23 10:30:00,29.0,15.7,30.11,NW,323,1.1,0.0,57,0.00,CLR,,0.00,WeatherDisplay:10.37,2013-03-23 15:30:00,
2013-03-23 10:35:00,29.4,15.2,30.11,NW,323,2.3,2.3,55,0.00,CLR,,0.00,WeatherDisplay:10.37,2013-03-23 15:35:00,
2013-03-23 10:40:00,29.7,15.1,30.11,NW,323,4.6,4.6,54,0.00,CLR,,0.00,WeatherDisplay:10.37,2013-03-23 15:40:00,
2013-03-23 10:45:00,30.0,15.3,30.11,NW,323,3.5,3.5,54,0.00,CLR,,0.00,WeatherDisplay:10.37,2013-03-23 15:45:00,
2013-03-23 10:50:00,30.6,15.0,30.11,NW,323,4.0,4.0,52,0.00,CLR,,0.00,WeatherDisplay:10.37,2013-03-23 15:50:00,
2013-03-23 10:55:00,31.0,15.8,30.11,NW,323,1.1,1.1,53,0.00,CLR,,0.00,WeatherDisplay:10.37,2013-03-23 15:55:00,
2013-03-23 11:00:00,32.1,16.0,30.11,NW,323,2.3,2.3,51,0.00,CLR,,0.00,WeatherDisplay:10.37,2013-03-23 16:00:00,
2013-03-23 11:05:00,32.4,15.3,30.11,NW,323,3.5,3.5,49,0.00,CLR,,0.00,WeatherDisplay:10.37,2013-03-23 16:05:00,
2013-03-23 11:10:00,32.2,14.7,30.11,NW,323,4.6,4.6,48,0.00,CLR,,0.00,WeatherDisplay:10.37,2013-03-23 16:10:00,
2013-03-23 11:15:00,32.8,14.8,30.11,NW,323,3.5,3.5,47,0.00,CLR,,0.00,WeatherDisplay:10.37,2013-03-23 16:15:00,
2013-03-23 11:20:00,33.4,14.8,30.11,NW,323,3.5,3.5,46,0.00,CLR,,0.00,WeatherDisplay:10.37,2013-03-23 16:20:00,
2013-03-23 11:25:00,33.7,14.6,30.11,NW,323,3.5,3.5,45,0.00,CLR,,0.00,WeatherDisplay:10.37,2013-03-23 16:25:00,
2013-03-23 11:30:00,33.5,13.9,30.12,NW,326,5.8,5.8,44,0.00,CLR,,0.00,WeatherDisplay:10.37,2013-03-23 16:30:00,
2013-03-23 11:35:00,33.7,14.6,30.12,NW,326,5.0,5.0,45,0.00,CLR,,0.00,WeatherDisplay:10.37,2013-03-23 16:35:00,
2013-03-23 11:40:00,33.7,14.1,30.12,North,355,2.3,2.3,44,0.00,CLR,,0.00,WeatherDisplay:10.37,2013-03-23 16:40:00,
2013-03-23 11:45:00,33.5,12.8,30.12,North,360,4.6,4.6,42,0.00,CLR,,0.00,WeatherDisplay:10.37,2013-03-23 16:45:00,
2013-03-23 11:50:00,33.8,14.2,30.12,WSW,254,4.6,4.6,44,0.00,CLR,,0.00,WeatherDisplay:10.37,2013-03-23 16:50:00,
2013-03-23 11:56:00,35.3,15.5,30.12,West,275,3.0,3.0,44,0.00,CLR,,0.00,WeatherDisplay:10.37,2013-03-23 16:56:00,
2013-03-23 12:01:00,35.2,14.9,30.12,NNW,341,3.5,3.5,43,0.00,CLR,,0.00,WeatherDisplay:10.37,2013-03-23 17:01:00,
2013-03-23 12:26:00,36.5,14.4,30.12,NNW,331,3.5,3.5,40,0.00,CLR,,0.00,WeatherDisplay:10.37,2013-03-23 17:26:00,
2013-03-23 12:31:00,35.9,14.5,30.12,NNW,335,2.3,2.3,41,0.00,CLR,,0.00,WeatherDisplay:10.37,2013-03-23 17:31:00,
2013-03-23 12:36:00,37.3,14.6,30.12,NNW,335,1.1,0.0,39,0.00,CLR,,0.00,WeatherDisplay:10.37,2013-03-23 17:36:00,
2013-03-23 12:42:00,37.0,14.3,30.12,NNW,335,5.0,5.0,39,0.00,CLR,,0.00,WeatherDisplay:10.37,2013-03-23 17:42:00,
2013-03-23 12:47:00,36.0,14.0,30.12,NNW,336,3.5,3.5,40,0.00,CLR,,0.00,WeatherDisplay:10.37,2013-03-23 17:47:00,
2013-03-23 12:52:00,36.2,14.7,30.12,NNW,336,3.5,3.5,41,0.00,CLR,,0.00,WeatherDisplay:10.37,2013-03-23 17:52:00,
2013-03-23 12:57:00,36.2,14.7,30.12,NNW,336,4.0,4.0,41,0.00,CLR,,0.00,WeatherDisplay:10.37,2013-03-23 17:57:00,
2013-03-23 13:02:00,36.3,14.8,30.11,NNW,336,1.1,1.1,41,0.00,CLR,,0.00,WeatherDisplay:10.37,2013-03-23 18:02:00,
2013-03-23 13:07:00,37.5,15.9,30.11,NNW,336,3.5,3.5,41,0.00,CLR,,0.00,WeatherDisplay:10.37,2013-03-23 18:07:00,
2013-03-23 13:12:00,38.0,15.2,30.11,NW,319,3.5,3.5,39,0.00,CLR,,0.00,WeatherDisplay:10.37,2013-03-23 18:12:00,
2013-03-23 13:17:00,38.3,15.5,30.10,South,184,3.5,3.5,39,0.00,CLR,,0.00,WeatherDisplay:10.37,2013-03-23 18:17:00,
2013-03-23 13:22:00,39.1,16.8,30.10,SSE,167,3.5,3.5,40,0.00,CLR,,0.00,WeatherDisplay:10.37,2013-03-23 18:22:00,
2013-03-23 13:27:00,39.2,15.7,30.10,SSE,158,6.9,6.9,38,0.00,CLR,,0.00,WeatherDisplay:10.37,2013-03-23 18:27:00,
2013-03-23 13:32:00,39.5,16.0,30.10,SE,139,4.6,4.6,38,0.00,CLR,,0.00,WeatherDisplay:10.37,2013-03-23 18:32:00,
2013-03-23 13:37:00,38.9,15.4,30.10,SSE,155,3.5,3.5,38,0.00,CLR,,0.00,WeatherDisplay:10.37,2013-03-23 18:37:00,
2013-03-23 13:42:00,38.9,15.4,30.10,South,173,4.6,4.6,38,0.00,CLR,,0.00,WeatherDisplay:10.37,2013-03-23 18:42:00,
2013-03-23 13:47:00,39.3,16.4,30.10,South,173,3.5,3.5,39,0.00,CLR,,0.00,WeatherDisplay:10.37,2013-03-23 18:47:00,
2013-03-23 13:52:00,39.5,16.6,30.10,South,173,5.0,5.0,39,0.00,CLR,,0.00,WeatherDisplay:10.37,2013-03-23 18:52:00,
2013-03-23 13:57:00,39.5,17.7,30.10,South,173,4.6,4.6,41,0.00,CLR,,0.00,WeatherDisplay:10.37,2013-03-23 18:57:00,
2013-03-23 14:03:00,38.6,16.3,30.10,South,169,6.9,6.9,40,0.00,CLR,,0.00,WeatherDisplay:10.37,2013-03-23 19:03:00,
2013-03-23 14:08:00,38.3,16.6,30.10,SSE,153,6.9,6.9,41,0.00,CLR,,0.00,WeatherDisplay:10.37,2013-03-23 19:08:00,
2013-03-23 14:13:00,37.8,17.8,30.10,SSE,163,6.9,6.9,44,0.00,CLR,,0.00,WeatherDisplay:10.37,2013-03-23 19:13:00,
2013-03-23 14:18:00,37.5,17.5,30.10,SSW,204,7.0,7.0,44,0.00,CLR,,0.00,WeatherDisplay:10.37,2013-03-23 19:18:00,
2013-03-23 14:23:00,36.3,16.4,30.10,SSW,202,7.0,7.0,44,0.00,CLR,,0.00,WeatherDisplay:10.37,2013-03-23 19:23:00,
2013-03-23 14:28:00,36.3,17.5,30.10,South,172,9.2,9.2,46,0.00,CLR,,0.00,WeatherDisplay:10.37,2013-03-23 19:28:00,
2013-03-23 14:33:00,36.3,17.5,30.09,SSE,163,10.4,10.4,46,0.00,CLR,,0.00,WeatherDisplay:10.37,2013-03-23 19:33:00,
2013-03-23 14:38:00,36.0,17.2,30.09,SSE,161,6.9,6.9,46,0.00,CLR,,0.00,WeatherDisplay:10.37,2013-03-23 19:38:00,
2013-03-23 14:43:00,35.8,17.0,30.09,SSE,150,11.5,11.5,46,0.00,CLR,,0.00,WeatherDisplay:10.37,2013-03-23 19:43:00,
2013-03-23 14:48:00,35.8,17.5,30.08,South,173,9.2,9.2,47,0.00,CLR,,0.00,WeatherDisplay:10.37,2013-03-23 19:48:00,
2013-03-23 14:53:00,35.9,18.1,30.08,SSE,168,6.9,6.9,48,0.00,CLR,,0.00,WeatherDisplay:10.37,2013-03-23 19:53:00,
2013-03-23 14:58:00,35.9,17.6,30.08,SSE,165,4.6,4.6,47,0.00,CLR,,0.00,WeatherDisplay:10.37,2013-03-23 19:58:00,
2013-03-23 15:03:00,35.5,17.7,30.08,SSW,192,6.9,6.9,48,0.00,CLR,,0.00,WeatherDisplay:10.37,2013-03-23 20:03:00,
2013-03-23 15:08:00,35.5,17.2,30.08,SSW,201,5.8,5.8,47,0.00,CLR,,0.00,WeatherDisplay:10.37,2013-03-23 20:08:00,
2013-03-23 15:13:00,35.5,17.2,30.08,SSE,155,4.6,4.6,47,0.00,CLR,,0.00,WeatherDisplay:10.37,2013-03-23 20:13:00,
2013-03-23 15:18:00,35.6,17.3,30.07,SSW,211,6.9,6.9,47,0.00,CLR,,0.00,WeatherDisplay:10.37,2013-03-23 20:18:00,
2013-03-23 15:23:00,35.6,17.3,30.07,SSW,205,6.9,6.9,47,0.00,CLR,,0.00,WeatherDisplay:10.37,2013-03-23 20:23:00,
2013-03-23 15:28:00,35.8,17.5,30.07,SSW,210,6.9,6.9,47,0.00,CLR,,0.00,WeatherDisplay:10.37,2013-03-23 20:28:00,
2013-03-23 15:33:00,35.5,17.2,30.07,SSW,213,10.4,10.4,47,0.00,CLR,,0.00,WeatherDisplay:10.37,2013-03-23 20:33:00,
2013-03-23 15:38:00,35.3,17.1,30.07,SSW,194,6.0,6.0,47,0.00,CLR,,0.00,WeatherDisplay:10.37,2013-03-23 20:38:00,
2013-03-23 15:43:00,35.5,17.2,30.07,SW,214,5.8,5.8,47,0.00,CLR,,0.00,WeatherDisplay:10.37,2013-03-23 20:43:00,
2013-03-23 15:48:00,35.8,17.0,30.07,South,173,5.8,5.8,46,0.00,CLR,,0.00,WeatherDisplay:10.37,2013-03-23 20:48:00,
2013-03-23 15:53:00,35.5,16.7,30.07,SSW,208,6.9,6.9,46,0.00,CLR,,0.00,WeatherDisplay:10.37,2013-03-23 20:53:00,
2013-03-23 15:58:00,35.6,16.8,30.07,South,182,6.0,6.0,46,0.00,CLR,,0.00,WeatherDisplay:10.37,2013-03-23 20:58:00,
2013-03-23 16:03:00,35.6,17.3,30.07,South,186,6.0,6.0,47,0.00,CLR,,0.00,WeatherDisplay:10.37,2013-03-23 21:03:00,
2013-03-23 16:08:00,35.6,17.3,30.07,South,186,3.5,3.5,47,0.00,CLR,,0.00,WeatherDisplay:10.37,2013-03-23 21:08:00,
2013-03-23 16:13:00,35.6,16.8,30.07,SSW,194,4.6,4.6,46,0.00,CLR,,0.00,WeatherDisplay:10.37,2013-03-23 21:13:00,
2013-03-23 16:18:00,35.5,17.2,30.07,SSW,194,5.8,5.8,47,0.00,CLR,,0.00,WeatherDisplay:10.37,2013-03-23 21:18:00,
2013-03-23 16:23:00,35.6,17.8,30.07,SSE,163,5.8,5.8,48,0.00,CLR,,0.00,WeatherDisplay:10.37,2013-03-23 21:23:00,
2013-03-23 16:28:00,35.9,18.1,30.07,SSE,163,4.6,4.6,48,0.00,CLR,,0.00,WeatherDisplay:10.37,2013-03-23 21:28:00,
2013-03-23 16:33:00,35.8,17.5,30.07,SSE,164,4.6,4.6,47,0.00,CLR,,0.00,WeatherDisplay:10.37,2013-03-23 21:33:00,
2013-03-23 16:38:00,35.6,17.3,30.07,SSE,164,4.0,4.0,47,0.00,CLR,,0.00,WeatherDisplay:10.37,2013-03-23 21:38:00,
2013-03-23 16:45:00,35.5,17.2,30.07,SSE,163,1.0,4.0,47,0.00,CLR,,0.00,WeatherDisplay:10.37,2013-03-23 21:45:00,
2013-03-23 16:50:00,35.6,17.3,30.07,SSE,160,2.0,5.0,47,0.00,CLR,,0.00,WeatherDisplay:10.37,2013-03-23 21:50:00,
2013-03-23 16:55:00,35.6,17.3,30.07,SSE,167,3.0,6.0,47,0.00,CLR,,0.00,WeatherDisplay:10.37,2013-03-23 21:55:00,
2013-03-23 17:00:00,35.9,17.6,30.06,South,182,0.0,5.0,47,0.00,CLR,,0.00,WeatherDisplay:10.37,2013-03-23 22:00:00,
2013-03-23 17:05:00,36.3,17.5,30.06,SSW,193,1.0,4.0,46,0.00,CLR,,0.00,WeatherDisplay:10.37,2013-03-23 22:05:00,
2013-03-23 17:10:00,37.0,17.1,30.06,SSW,211,3.0,6.0,44,0.00,CLR,,0.00,WeatherDisplay:10.37,2013-03-23 22:10:00,
2013-03-23 17:15:00,36.9,16.5,30.06,WSW,241,5.0,6.0,43,0.00,CLR,,0.00,WeatherDisplay:10.37,2013-03-23 22:15:00,
2013-03-23 17:20:00,36.3,17.5,30.06,WNW,283,2.0,5.0,46,0.00,CLR,,0.00,WeatherDisplay:10.37,2013-03-23 22:20:00,
2013-03-23 17:25:00,36.5,17.7,30.06,NW,304,1.0,5.0,46,0.00,CLR,,0.00,WeatherDisplay:10.37,2013-03-23 22:25:00,
2013-03-23 17:30:00,37.0,18.1,30.07,WNW,297,2.0,4.0,46,0.00,CLR,,0.00,WeatherDisplay:10.37,2013-03-23 22:30:00,
2013-03-23 17:35:00,37.5,17.5,30.07,WSW,254,1.0,5.0,44,0.00,CLR,,0.00,WeatherDisplay:10.37,2013-03-23 22:35:00,
2013-03-23 17:40:00,37.0,17.1,30.07,West,265,2.0,9.0,44,0.00,CLR,,0.00,WeatherDisplay:10.37,2013-03-23 22:40:00,
2013-03-23 17:45:00,36.8,16.9,30.07,WNW,289,2.0,6.0,44,0.00,CLR,,0.00,WeatherDisplay:10.37,2013-03-23 22:45:00,
2013-03-23 17:50:00,36.5,17.1,30.07,WNW,299,1.0,5.0,45,0.00,CLR,,0.00,WeatherDisplay:10.37,2013-03-23 22:50:00,
2013-03-23 17:55:00,36.5,17.1,30.07,WNW,300,3.0,5.0,45,0.00,CLR,,0.00,WeatherDisplay:10.37,2013-03-23 22:55:00,
2013-03-23 18:00:00,36.8,17.4,30.07,WNW,286,3.0,7.0,45,0.00,CLR,,0.00,WeatherDisplay:10.37,2013-03-23 23:00:00,
2013-03-23 18:05:00,36.5,17.1,30.07,West,281,3.0,5.0,45,0.00,CLR,,0.00,WeatherDisplay:10.37,2013-03-23 23:05:00,
2013-03-23 18:10:00,36.2,17.4,30.07,WNW,286,2.0,10.0,46,0.00,CLR,,0.00,WeatherDisplay:10.37,2013-03-23 23:10:00,
2013-03-23 18:15:00,36.2,17.4,30.07,West,277,2.0,8.0,46,0.00,CLR,,0.00,WeatherDisplay:10.37,2013-03-23 23:15:00,
2013-03-23 18:20:00,35.9,17.6,30.07,WNW,285,3.0,6.0,47,0.00,CLR,,0.00,WeatherDisplay:10.37,2013-03-23 23:20:00,
2013-03-23 18:25:00,35.6,17.3,30.07,WNW,290,2.0,6.0,47,0.00,CLR,,0.00,WeatherDisplay:10.37,2013-03-23 23:25:00,
2013-03-23 18:30:00,35.2,17.4,30.07,WNW,282,3.0,7.0,48,0.00,CLR,,0.00,WeatherDisplay:10.37,2013-03-23 23:30:00,
2013-03-23 18:35:00,34.6,16.9,30.07,WNW,290,1.0,9.0,48,0.00,CLR,,0.00,WeatherDisplay:10.37,2013-03-23 23:35:00,
2013-03-23 18:40:00,34.3,17.1,30.07,WNW,283,1.0,6.0,49,0.00,CLR,,0.00,WeatherDisplay:10.37,2013-03-23 23:40:00,
2013-03-23 18:45:00,34.0,16.8,30.07,West,272,1.0,5.0,49,0.00,CLR,,0.00,WeatherDisplay:10.37,2013-03-23 23:45:00,
2013-03-23 18:50:00,33.7,17.0,30.07,West,270,2.0,7.0,50,0.00,CLR,,0.00,WeatherDisplay:10.37,2013-03-23 23:50:00,
2013-03-23 18:55:00,33.4,17.2,30.07,West,270,1.0,5.0,51,0.00,CLR,,0.00,WeatherDisplay:10.37,2013-03-23 23:55:00,
2013-03-23 19:00:00,33.1,17.4,30.07,West,270,0.0,2.0,52,0.00,CLR,,0.00,WeatherDisplay:10.37,2013-03-24 00:00:00,
2013-03-23 19:05:00,32.8,16.6,30.07,West,281,3.0,7.0,51,0.00,CLR,,0.00,WeatherDisplay:10.37,2013-03-24 00:05:00,
2013-03-23 19:10:00,32.5,16.4,30.07,West,281,1.0,7.0,51,0.00,CLR,,0.00,WeatherDisplay:10.37,2013-03-24 00:10:00,
2013-03-23 19:15:00,32.2,16.5,30.07,West,278,1.0,5.0,52,0.00,CLR,,0.00,WeatherDisplay:10.37,2013-03-24 00:15:00,
2013-03-23 19:20:00,31.9,16.7,30.07,WNW,287,1.0,5.0,53,0.00,CLR,,0.00,WeatherDisplay:10.37,2013-03-24 00:20:00,
2013-03-23 19:25:00,31.6,16.8,30.07,WNW,292,3.0,9.0,54,0.00,CLR,,0.00,WeatherDisplay:10.37,2013-03-24 00:25:00,
2013-03-23 19:30:00,31.5,17.2,30.08,WNW,288,2.0,4.0,55,0.00,CLR,,0.00,WeatherDisplay:10.37,2013-03-24 00:30:00,
2013-03-23 19:35:00,31.3,17.0,30.08,West,263,3.0,6.0,55,0.00,CLR,,0.00,WeatherDisplay:10.37,2013-03-24 00:35:00,
2013-03-23 19:40:00,31.0,16.3,30.08,West,262,3.0,7.0,54,0.00,CLR,,0.00,WeatherDisplay:10.37,2013-03-24 00:40:00,
2013-03-23 19:45:00,30.9,16.2,30.08,West,271,2.0,5.0,54,0.00,CLR,,0.00,WeatherDisplay:10.37,2013-03-24 00:45:00,
2013-03-23 19:50:00,30.6,16.3,30.08,WNW,286,1.0,5.0,55,0.00,CLR,,0.00,WeatherDisplay:10.37,2013-03-24 00:50:00,
2013-03-23 19:55:00,30.3,16.0,30.08,NW,307,1.0,3.0,55,0.00,CLR,,0.00,WeatherDisplay:10.37,2013-03-24 00:55:00,
2013-03-23 20:00:00,30.1,15.9,30.08,WNW,296,3.0,7.0,55,0.00,CLR,,0.00,WeatherDisplay:10.37,2013-03-24 01:00:00,
2013-03-23 20:05:00,30.1,16.3,30.08,WNW,288,2.0,6.0,56,0.00,CLR,,0.00,WeatherDisplay:10.37,2013-03-24 01:05:00,
2013-03-23 20:10:00,30.0,16.2,30.08,WNW,297,2.0,5.0,56,0.00,CLR,,0.00,WeatherDisplay:10.37,2013-03-24 01:10:00,
2013-03-23 20:15:00,29.8,16.4,30.08,WNW,297,2.0,5.0,57,0.00,CLR,,0.00,WeatherDisplay:10.37,2013-03-24 01:15:00,
2013-03-23 20:20:00,29.8,16.4,30.08,WNW,299,2.0,7.0,57,0.00,CLR,,0.00,WeatherDisplay:10.37,2013-03-24 01:20:00,
2013-03-23 20:25:00,29.7,16.3,30.08,WNW,300,1.0,4.0,57,0.00,CLR,,0.00,WeatherDisplay:10.37,2013-03-24 01:25:00,
2013-03-23 20:30:00,29.5,16.5,30.08,WNW,295,2.0,7.0,58,0.00,CLR,,0.00,WeatherDisplay:10.37,2013-03-24 01:30:00,
2013-03-23 20:35:00,29.5,16.5,30.08,NW,305,2.0,5.0,58,0.00,CLR,,0.00,WeatherDisplay:10.37,2013-03-24 01:35:00,
2013-03-23 20:40:00,29.4,16.4,30.08,WNW,291,2.0,5.0,58,0.00,CLR,,0.00,WeatherDisplay:10.37,2013-03-24 01:40:00,
2013-03-23 20:45:00,29.4,16.4,30.08,West,275,1.0,4.0,58,0.00,CLR,,0.00,WeatherDisplay:10.37,2013-03-24 01:45:00,
2013-03-23 20:50:00,29.3,16.7,30.08,WNW,286,2.0,7.0,59,0.00,CLR,,0.00,WeatherDisplay:10.37,2013-03-24 01:50:00,
2013-03-23 20:55:00,29.1,16.5,30.08,WNW,292,3.0,4.0,59,0.00,CLR,,0.00,WeatherDisplay:10.37,2013-03-24 01:55:00,
2013-03-23 21:00:00,29.0,16.8,30.08,WNW,287,1.0,5.0,60,0.00,CLR,,0.00,WeatherDisplay:10.37,2013-03-24 02:00:00,
2013-03-23 21:05:00,29.0,16.8,30.08,NW,305,1.0,6.0,60,0.00,CLR,,0.00,WeatherDisplay:10.37,2013-03-24 02:05:00,
2013-03-23 21:10:00,28.8,16.6,30.08,NW,314,2.0,5.0,60,0.00,CLR,,0.00,WeatherDisplay:10.37,2013-03-24 02:10:00,
2013-03-23 21:15:00,28.8,17.0,30.09,WNW,300,2.0,6.0,61,0.00,CLR,,0.00,WeatherDisplay:10.37,2013-03-24 02:15:00,
2013-03-23 21:20:00,28.7,16.9,30.09,WNW,294,3.0,5.0,61,0.00,CLR,,0.00,WeatherDisplay:10.37,2013-03-24 02:20:00,
2013-03-23 21:25:00,28.5,17.1,30.09,WNW,292,1.0,5.0,62,0.00,CLR,,0.00,WeatherDisplay:10.37,2013-03-24 02:25:00,
2013-03-23 21:30:00,28.4,17.4,30.09,WNW,284,2.0,5.0,63,0.00,CLR,,0.00,WeatherDisplay:10.37,2013-03-24 02:30:00,
2013-03-23 21:35:00,28.2,17.2,30.09,West,278,3.0,6.0,63,0.00,CLR,,0.00,WeatherDisplay:10.37,2013-03-24 02:35:00,
2013-03-23 21:40:00,28.2,17.6,30.09,WNW,292,1.0,6.0,64,0.00,CLR,,0.00,WeatherDisplay:10.37,2013-03-24 02:40:00,
2013-03-23 21:45:00,28.1,17.8,30.08,WNW,301,3.0,5.0,65,0.00,CLR,,0.00,WeatherDisplay:10.37,2013-03-24 02:45:00,
2013-03-23 21:50:00,28.1,17.8,30.08,NW,307,2.0,5.0,65,0.00,CLR,,0.00,WeatherDisplay:10.37,2013-03-24 02:50:00,
2013-03-23 21:55:00,28.1,17.8,30.08,NW,315,2.0,7.0,65,0.00,CLR,,0.00,WeatherDisplay:10.37,2013-03-24 02:55:00,
2013-03-23 22:00:00,27.9,18.0,30.08,NW,315,1.0,3.0,66,0.00,CLR,,0.00,WeatherDisplay:10.37,2013-03-24 03:00:00,
2013-03-23 22:05:00,27.8,18.3,30.08,NW,315,2.0,6.0,67,0.00,CLR,,0.00,WeatherDisplay:10.37,2013-03-24 03:05:00,
2013-03-23 22:10:00,27.8,18.3,30.08,NW,315,2.0,5.0,67,0.00,CLR,,0.00,WeatherDisplay:10.37,2013-03-24 03:10:00,
2013-03-23 22:15:00,27.6,18.1,30.08,NW,315,2.0,4.0,67,0.00,CLR,,0.00,WeatherDisplay:10.37,2013-03-24 03:15:00,
2013-03-23 22:20:00,27.5,18.3,30.08,NW,315,2.0,5.0,68,0.00,CLR,,0.00,WeatherDisplay:10.37,2013-03-24 03:20:00,
2013-03-23 22:25:00,27.5,18.3,30.08,NW,315,1.0,3.0,68,0.00,CLR,,0.00,WeatherDisplay:10.37,2013-03-24 03:25:00,
2013-03-23 22:30:00,27.3,18.1,30.08,NW,315,0.0,3.0,68,0.00,CLR,,0.00,WeatherDisplay:10.37,2013-03-24 03:30:00,
2013-03-23 22:35:00,27.3,18.5,30.08,NW,315,1.0,3.0,69,0.00,CLR,,0.00,WeatherDisplay:10.37,2013-03-24 03:35:00,
2013-03-23 22:40:00,27.3,18.5,30.08,NW,315,1.0,3.0,69,0.00,CLR,,0.00,WeatherDisplay:10.37,2013-03-24 03:40:00,
2013-03-23 22:49:00,27.2,18.4,30.08,NW,311,2.3,2.3,69,0.00,CLR,,0.00,WeatherDisplay:10.37,2013-03-24 03:49:00,
2013-03-23 22:54:00,27.2,18.4,30.08,NW,315,0.0,4.0,69,0.00,CLR,,0.00,WeatherDisplay:10.37,2013-03-24 03:54:00,
2013-03-23 22:59:00,27.2,18.7,30.08,NW,311,3.5,3.5,70,0.00,CLR,,0.00,WeatherDisplay:10.37,2013-03-24 03:59:00,
2013-03-23 23:00:00,27.2,18.7,30.08,NW,311,2.3,2.3,70,0.00,CLR,,0.00,WeatherDisplay:10.37,2013-03-24 04:00:00,
2013-03-23 23:05:00,27.2,18.7,30.08,NW,311,2.3,2.3,70,0.00,CLR,,0.00,WeatherDisplay:10.37,2013-03-24 04:05:00,
2013-03-23 23:10:00,27.2,18.7,30.08,NW,311,5.8,5.8,70,0.00,CLR,,0.00,WeatherDisplay:10.37,2013-03-24 04:10:00,
2013-03-23 23:15:00,27.2,18.7,30.08,NW,311,3.5,3.5,70,0.00,CLR,,0.00,WeatherDisplay:10.37,2013-03-24 04:15:00,
2013-03-23 23:20:00,27.2,18.7,30.08,NW,311,0.0,0.0,70,0.00,CLR,,0.00,WeatherDisplay:10.37,2013-03-24 04:20:00,
2013-03-23 23:25:00,27.2,18.7,30.08,NW,311,2.3,0.0,70,0.00,CLR,,0.00,WeatherDisplay:10.37,2013-03-24 04:25:00,
2013-03-23 23:30:00,27.2,18.7,30.08,NW,311,4.6,4.6,70,0.00,CLR,,0.00,WeatherDisplay:10.37,2013-03-24 04:30:00,
2013-03-23 23:35:00,27.3,18.5,30.08,NW,311,3.5,3.5,69,0.00,CLR,,0.00,WeatherDisplay:10.37,2013-03-24 04:35:00,
2013-03-23 23:40:00,27.3,18.5,30.08,NW,315,3.5,3.5,69,0.00,CLR,,0.00,WeatherDisplay:10.37,2013-03-24 04:40:00,
2013-03-23 23:45:00,27.3,18.5,30.08,NW,315,3.5,3.5,69,0.00,CLR,,0.00,WeatherDisplay:10.37,2013-03-24 04:45:00,
2013-03-23 23:50:00,27.3,18.5,30.08,NW,315,3.5,3.5,69,0.00,CLR,,0.00,WeatherDisplay:10.37,2013-03-24 04:50:00,
2013-03-23 23:55:00,27.3,18.5,30.08,NW,315,2.3,2.3,69,0.00,CLR,,0.00,WeatherDisplay:10.37,2013-03-24 04:55:00,